Content
SEND FEEDBACK

Daily
Averages
Monthly
Summary
Canada

VANCOUVER, BRITISH COLUMBIA


Home > North America > Canada > British Columbia
Elevation: 2 meters     Latitude: 49 11N     Longitude: 123 10W

WEATHER
 
SELECT A DAY
Number of Records: 253,051;   Date Range: 5/15/97 - 10/22/14
 
SHARE

PRINT THIS DATA

[ ← Previous Day ]
WEATHER ALMANAC - 1 JANUARY, 2013
[ Next Day → ]
[ °F ]   °C
Weather ElementAverageHighLow
Temperature2.1 °C4 °C (7:15 pm)0 °C (3:15 am)
Dewpoint0.3 °C3 °C (12:35 am)-2 °C (10:15 pm)
Humidity88.8 %100 % (12:35 am)70 % (10:15 pm)
Barometer1030.8 hPa1033.2 hPa (9:55 am)1028.4 hPa (8:55 pm)
Wind Speed4 km/h13 km/h (11:15 am)
Weather ElementAverage
Visibility13.2 km
Wind DirectionENE (59.7 °)

Weather ElementTotal
Precipitation---
Heating Degree Days16.3 (Base 18.3)
Averaged from 69 records on 1 January, 2013
WEATHER CONDITIONS BREAKOUT
WIND DIRECTION BREAKOUT
WEATHER BY HOUR - 1 JANUARY, 2013
[ °F ]   °C
Local TimeTemperatureDewpointHumidityBarometerVisibilityWind DirectionWind SpeedGust SpeedPrecipitationEventsConditions
12:35 AM3 °C3 °C100 %1031.5 hPa11.3 kmCalmOvercast
12:55 AM3 °C3 °C100 %1031.5 hPa12.9 kmCalmOvercast
1:15 AM3 °C2 °C93 %1031.5 hPa8 kmCalmOvercast
1:35 AM2 °C2 °C100 %1031.5 hPa8 kmCalmOvercast
1:55 AM2 °C2 °C100 %1031.8 hPa6.4 kmCalmMostly Cloudy
2:15 AM2 °C2 °C100 %1031.8 hPa4.8 kmCalmPartly Cloudy
2:35 AM1 °C1 °C100 %1032.2 hPa4.8 kmCalmClear
2:55 AM1 °C1 °C100 %1031.8 hPa4.8 kmCalmClear
3:15 AM0 °C0 °C100 %1031.5 hPa4.8 kmCalmClear
3:35 AM0 °C0 °C100 %1031.5 hPa4.8 kmCalmClear
3:55 AM0 °C0 °C100 %1031.2 hPa4.8 kmCalmPartly Cloudy
4:15 AM0 °C0 °C100 %1031.2 hPa4.8 kmCalmClear
4:35 AM0 °C0 °C100 %1031.2 hPa4 kmCalmScattered Clouds
4:55 AM0 °C0 °C100 %1031.2 hPa2.4 kmCalmMostly Cloudy
5:15 AM0 °C0 °C100 %1030.8 hPa4.8 kmCalmClear
5:35 AM0 °C0 °C100 %1031.2 hPa4.8 kmCalmScattered Clouds
5:55 AM0 °C0 °C100 %1031.2 hPa6.4 kmCalmOvercast
6:15 AM0 °C0 °C100 %1031.5 hPa6.4 kmCalmOvercast
6:35 AM0 °C0 °C100 %1031.5 hPa8 kmCalmMostly Cloudy
6:55 AM0 °C0 °C100 %1031.5 hPa8 kmCalmScattered Clouds
7:15 AM0 °C0 °C100 %1031.5 hPa14.5 kmCalmMostly Cloudy
7:35 AM1 °C1 °C100 %1031.8 hPa12.9 kmCalmOvercast
7:55 AM2 °C2 °C100 %1031.8 hPa14.5 kmEast (90°)5.6 km/hOvercast
8:15 AM2 °C2 °C100 %1032.2 hPa16.1 kmCalmOvercast
8:35 AM2 °C1 °C93 %1032.2 hPa16.1 kmNE (40°)7.4 km/hOvercast
8:55 AM2 °C0 °C87 %1032.2 hPa14.5 kmCalmScattered Clouds
9:15 AM2 °C0 °C87 %1032.5 hPa16.1 kmCalmPartly Cloudy
9:35 AM2 °C0 °C87 %1032.8 hPa16.1 kmCalmMostly Cloudy
9:55 AM2 °C0 °C87 %1033.2 hPa16.1 kmNE (40°)5.6 km/hScattered Clouds
10:15 AM2 °C0 °C87 %1033.2 hPa16.1 kmNE (50°)7.4 km/hClear
10:35 AM2 °C0 °C87 %1032.8 hPa16.1 kmNE (40°)7.4 km/hClear
10:55 AM2 °C0 °C87 %1032.8 hPa16.1 kmENE (70°)7.4 km/hClear
11:15 AM2 °C-1 °C81 %1032.5 hPa16.1 kmNE (40°)13 km/hClear
11:35 AM2 °C-1 °C81 %1032.2 hPa16.1 kmENE (60°)7.4 km/hClear
11:55 AM2 °C-1 °C81 %1032.2 hPa16.1 kmNNE (30°)9.3 km/hClear
12:15 PM3 °C-1 °C75 %1032.2 hPa16.1 kmNE (50°)9.3 km/hClear
12:35 PM3 °C-1 °C75 %1031.8 hPa16.1 kmNE (50°)7.4 km/hClear
12:55 PM3 °C-1 °C75 %1031.5 hPa16.1 kmNNE (30°)9.3 km/hClear
1:15 PM3 °C0 °C81 %1031.5 hPa16.1 kmNE (40°)9.3 km/hClear
1:35 PM3 °C0 °C81 %1031.5 hPa16.1 kmNorth (360°)11.1 km/hClear
1:55 PM3 °C0 °C81 %1031.2 hPa16.1 kmNorth (10°)7.4 km/hClear
2:15 PM3 °C0 °C81 %1031.2 hPa16.1 kmNorth (10°)7.4 km/hClear
2:35 PM3 °C1 °C87 %1031.2 hPa16.1 kmNorth (360°)9.3 km/hPartly Cloudy
2:55 PM3 °C1 °C87 %1031.2 hPa16.1 kmNorth (10°)13 km/hPartly Cloudy
3:15 PM3 °C0 °C81 %1031.2 hPa16.1 kmNorth (360°)9.3 km/hPartly Cloudy
3:35 PM3 °C0 °C81 %1031.2 hPa16.1 kmNorth (360°)5.6 km/hClear
3:55 PM3 °C0 °C81 %1030.8 hPa16.1 kmNorth (360°)5.6 km/hClear
4:15 PM3 °C1 °C87 %1031.2 hPa16.1 kmNorth (350°)7.4 km/hClear
4:35 PM3 °C1 °C87 %1030.8 hPa16.1 kmNorth (360°)7.4 km/hClear
4:55 PM3 °C1 °C87 %1030.5 hPa16.1 kmNorth (360°)7.4 km/hPartly Cloudy
5:15 PM3 °C2 °C93 %1030.1 hPa16.1 kmNorth (10°)9.3 km/hClear
5:35 PM3 °C1 °C87 %1029.8 hPa16.1 kmNorth (10°)7.4 km/hPartly Cloudy
5:55 PM3 °C2 °C93 %1029.8 hPa16.1 kmNorth (360°)9.3 km/hMostly Cloudy
6:15 PM3 °C1 °C87 %1029.8 hPa16.1 kmNorth (10°)7.4 km/hScattered Clouds
6:35 PM3 °C2 °C93 %1029.5 hPa16.1 kmNorth (10°)5.6 km/hPartly Cloudy
6:55 PM3 °C2 °C93 %1029.1 hPa16.1 kmCalmClear
7:15 PM4 °C0 °C75 %1029.1 hPa16.1 kmCalmClear
7:35 PM3 °C0 °C81 %1029.1 hPa16.1 kmNE (40°)5.6 km/hClear
7:55 PM3 °C0 °C81 %1029.1 hPa16.1 kmCalmClear
8:15 PM3 °C0 °C81 %1029.1 hPa16.1 kmNNE (30°)7.4 km/hClear
8:35 PM3 °C-1 °C75 %1028.8 hPa16.1 kmNE (40°)7.4 km/hClear
8:55 PM3 °C0 °C81 %1028.4 hPa16.1 kmNNE (20°)9.3 km/hClear
9:15 PM3 °C0 °C81 %1028.4 hPa16.1 kmCalmClear
9:55 PM3 °C-1 °C75 %1028.8 hPa16.1 kmNNE (30°)9.3 km/hClear
10:15 PM3 °C-2 °C70 %1028.4 hPa16.1 kmCalmClear
10:35 PM2 °C-1 °C81 %1028.4 hPa16.1 kmNNE (30°)7.4 km/hClear
10:55 PM2 °C-1 °C81 %1028.4 hPa16.1 kmCalmClear
11:15 PM3 °C-1 °C75 %1028.4 hPa16.1 kmCalmClear
11:35 PM2 °C-1 °C81 %1028.4 hPa16.1 kmCalmClear
Hourly data recorded from CZBB, located 0 kilometers away from Vancouver, British Columbia







STORIES FROM OUR PARTNERS